EW4685 Weather Reports


Display with metric or nautical units.
time (UTC)temp
F
wind
direction
speed
MPH
gust
MPH
rain 1hr
in
rain 24hr
in
rain mn
in
humidity
%
barometer
mb
20260502235425 59 209 0.0 2.0 0.00 0.02 0.02 88 1021.5
20260502234924 58 204 0.0 2.0 0.00 0.02 0.02 88 1021.5
20260502234647 58 187 0.0 0.0 0.00 0.02 0.02 88 1021.5
20260502233924 58 187 0.0 0.0 0.00 0.02 0.02 88 1021.5
20260502233652 58 187 0.0 0.0 0.00 0.02 0.02 89 1021.7
20260502232920 58 187 0.0 0.0 0.00 0.02 0.02 89 1021.7
20260502232421 58 187 0.0 0.0 0.00 0.02 0.02 90 1021.8
20260502231920 58 187 0.0 0.0 0.00 0.02 0.02 90 1021.8
20260502231421 58 187 0.0 0.0 0.00 0.02 0.02 91 1021.8
20260502230920 57 187 0.0 0.0 0.00 0.02 0.02 91 1021.8
20260502230420 57 187 0.0 1.0 0.00 0.02 0.02 91 1021.9
20260502225921 57 187 0.0 1.0 0.00 0.02 0.02 91 1021.8
20260502225420 57 187 0.0 0.0 0.00 0.02 0.02 92 1021.8
20260502224922 56 187 0.0 0.0 0.00 0.02 0.02 92 1021.8
20260502224636 56 187 0.0 0.0 0.00 0.02 0.02 92 1021.8
20260502223916 56 187 0.0 0.0 0.00 0.02 0.02 92 1021.7
20260502223637 55 187 0.0 0.0 0.01 0.02 0.02 92 1021.7
20260502222917 55 187 0.0 0.0 0.02 0.02 0.02 92 1021.8
20260502222418 55 187 0.0 0.0 0.02 0.02 0.02 92 1021.7
20260502221916 56 187 0.0 0.0 0.02 0.02 0.02 92 1021.7
20260502221415 56 187 0.0 0.0 0.02 0.02 0.02 92 1021.7
20260502220917 56 187 0.0 0.0 0.02 0.02 0.02 92 1021.5
20260502220418 55 187 0.0 0.0 0.02 0.02 0.02 92 1021.4
20260502215911 55 187 0.0 0.0 0.02 0.02 0.02 92 1021.2
20260502215403 55 187 0.0 0.0 0.02 0.02 0.02 92 1021.1
20260502214857 55 187 0.0 0.0 0.02 0.02 0.02 91 1021.2
20260502214351 55 187 0.0 0.0 0.02 0.02 0.02 91 1021.4
20260502213848 55 187 0.0 0.0 0.02 0.02 0.02 91 1021.2
20260502213339 55 187 0.0 0.0 0.01 0.01 0.01 90 1021.2
20260502212833 55 187 0.0 0.0 0.00 0.00 0.00 90 1021.3
20260502212555 54 187 0.0 0.0 0.00 0.00 0.00 90 1021.4
20260502211822 54 187 0.0 0.0 0.00 0.00 0.00 90 1021.3
20260502211317 54 187 0.0 0.0 0.00 0.00 0.00 90 1021.3
20260502210812 54 187 0.0 0.0 0.00 0.00 0.00 89 1021.3
20260502210304 54 187 0.0 0.0 0.00 0.00 0.00 89 1021.0
20260502205757 54 187 0.0 0.0 0.00 0.00 0.00 88 1020.9
20260502205251 55 187 0.0 0.0 0.00 0.00 0.00 87 1020.9
20260502205013 55 187 0.0 0.0 0.00 0.00 0.00 87 1020.8
20260502204240 56 187 0.0 0.0 0.00 0.00 0.00 87 1020.7
20260502203734 56 86 0.0 1.0 0.00 0.00 0.00 87 1020.6
20260502203228 56 28 0.0 1.0 0.00 0.00 0.00 87 1020.8
20260502202723 56 346 0.0 2.0 0.00 0.00 0.00 87 1020.8
20260502202223 56 57 0.0 3.0 0.00 0.00 0.00 87 1020.6
20260502201711 56 52 0.0 3.0 0.00 0.00 0.00 87 1020.6
20260502201203 55 79 0.0 1.0 0.00 0.00 0.00 87 1020.5
20260502200921 56 93 0.0 1.0 0.00 0.00 0.00 87 1020.6
20260502200151 56 93 0.0 4.0 0.00 0.00 0.00 86 1020.7
20260502195652 56 52 0.0 4.0 0.00 0.00 0.00 86 1020.6
20260502195403 56 71 0.0 3.0 0.00 0.00 0.00 87 1020.7
20260502194634 55 83 0.0 3.0 0.00 0.00 0.00 87 1020.5
20260502194129 55 53 1.0 5.0 0.00 0.00 0.00 88 1020.4
20260502193622 55 57 1.0 5.0 0.00 0.00 0.00 89 1020.4
20260502193118 54 77 0.0 4.0 0.00 0.00 0.00 91 1020.4
20260502192826 53 117 0.0 3.0 0.00 0.00 0.00 93 1020.3
20260502192103 53 89 0.0 2.0 0.00 0.01 0.00 93 1020.4
20260502191557 52 10 0.0 0.0 0.00 0.01 0.00 92 1020.4
20260502191051 52 10 0.0 0.0 0.00 0.01 0.00 92 1020.5
20260502190808 53 10 0.0 0.0 0.00 0.01 0.00 92 1020.4
20260502190041 52 10 0.0 0.0 0.00 0.01 0.00 92 1020.4
20260502185533 53 10 0.0 0.0 0.00 0.01 0.00 92 1020.4
20260502185027 53 10 0.0 0.0 0.00 0.01 0.00 92 1020.4
20260502184521 53 10 0.0 0.0 0.00 0.01 0.00 92 1020.4
20260502184015 53 10 0.0 0.0 0.00 0.01 0.00 92 1020.5
20260502183509 53 10 0.0 0.0 0.00 0.01 0.00 92 1020.4
20260502183004 53 10 0.0 0.0 0.00 0.01 0.00 90 1020.4
20260502182457 53 10 0.0 0.0 0.00 0.01 0.00 89 1020.4
20260502182218 54 10 0.0 0.0 0.00 0.01 0.00 88 1020.3
20260502181446 54 10 0.0 0.0 0.00 0.01 0.00 88 1020.3
20260502180941 55 10 0.0 1.0 0.00 0.01 0.00 88 1020.3
20260502180433 55 10 0.0 1.0 0.00 0.01 0.00 88 1020.3
20260502164116 55 55 0.0 0.0 0.00 0.01 0.00 92 1020.8
20260502163618 55 55 0.0 0.0 0.00 0.01 0.00 92 1020.9
20260502163109 56 55 0.0 0.0 0.00 0.01 0.00 91 1021.0
20260502162347 56 55 0.0 0.0 0.00 0.01 0.00 92 1020.9
20260502161846 56 55 0.0 0.0 0.00 0.01 0.00 92 1020.8
20260502161343 56 55 0.0 0.0 0.00 0.01 0.00 92 1020.9
20260502160843 56 55 0.0 0.0 0.00 0.01 0.00 91 1020.9
20260502160342 56 55 0.0 0.0 0.00 0.01 0.00 91 1020.9
20260502152259 57 55 0.0 0.0 0.00 0.01 0.00 90 1021.3
20260502152018 57 55 0.0 0.0 0.00 0.01 0.00 91 1021.3
20260502151247 57 55 0.0 0.0 0.00 0.01 0.00 90 1021.4
20260502151004 57 55 0.0 0.0 0.00 0.01 0.00 90 1021.5
20260502150236 57 55 0.0 1.0 0.00 0.01 0.00 90 1021.4
20260502130623 58 55 0.0 0.0 0.00 0.01 0.01 85 1022.3
20260502130117 58 55 0.0 0.0 0.00 0.01 0.01 85 1022.3
20260502123548 60 55 0.0 0.0 0.00 0.01 0.01 83 1022.4
20260502123042 60 55 0.0 0.0 0.00 0.01 0.01 82 1022.4
20260502122535 60 55 0.0 0.0 0.00 0.01 0.01 82 1022.4
20260502122029 60 55 0.0 0.0 0.00 0.01 0.01 82 1022.6
20260502121747 60 55 0.0 0.0 0.00 0.01 0.01 82 1022.6
20260502121017 60 55 0.0 0.0 0.00 0.01 0.01 82 1022.5
20260502120510 60 55 0.0 0.0 0.00 0.01 0.01 82 1022.5
20260502115501 61 55 0.0 0.0 0.00 0.01 0.01 81 1022.5
20260502114954 61 55 0.0 0.0 0.00 0.01 0.01 81 1022.5
20260502114447 61 55 0.0 0.0 0.00 0.01 0.01 81 1022.4
20260502113941 61 55 0.0 0.0 0.00 0.01 0.01 81 1022.4
20260502113436 61 55 0.0 0.0 0.00 0.01 0.01 80 1022.5
20260502112936 61 55 0.0 0.0 0.00 0.01 0.01 80 1022.4
20260502112426 61 55 0.0 0.0 0.00 0.01 0.01 79 1022.5
20260502111926 61 55 0.0 0.0 0.00 0.01 0.01 79 1022.5
20260502111908 62 55 0.0 0.0 0.00 0.01 0.01 78 1022.5
20260502110925 62 55 0.0 0.0 0.00 0.01 0.01 77 1022.4
20260502110426 62 55 0.0 0.0 0.00 0.01 0.01 77 1022.2
20260502105924 62 55 0.0 1.0 0.00 0.01 0.01 76 1022.2
20260502105423 63 38 0.0 3.0 0.00 0.01 0.01 76 1022.2
20260502104924 63 71 0.0 3.0 0.00 0.01 0.01 75 1022.2
20260502104647 63 33 0.0 2.0 0.00 0.01 0.01 75 1022.1
20260502104151 63 73 0.0 4.0 0.00 0.01 0.01 75 1022.3
20260502103636 63 99 0.0 4.0 0.00 0.01 0.01 74 1022.3
20260502102919 64 318 0.0 4.0 0.00 0.01 0.01 74 1022.0
20260502102420 64 351 0.0 5.0 0.00 0.01 0.01 74 1022.1
20260502102143 64 339 0.0 5.0 0.00 0.01 0.01 74 1022.1
20260502101418 64 338 1.0 4.0 0.00 0.01 0.01 73 1022.1
20260502100917 64 340 1.0 4.0 0.00 0.01 0.01 73 1022.1
20260502100416 64 17 0.0 4.0 0.00 0.01 0.01 72 1022.1
20260502091408 65 60 3.0 10.0 0.00 0.01 0.01 71 1021.5
20260502091125 65 72 2.0 10.0 0.00 0.01 0.01 71 1021.4
20260502090403 65 76 2.0 9.0 0.00 0.01 0.01 71 1021.5
20260502090353 65 21 3.0 11.0 0.00 0.01 0.01 70 1021.4
20260502070840 66 265 0.0 0.0 0.00 0.01 0.01 71 1020.9
20260502070332 66 265 0.0 0.0 0.00 0.01 0.01 70 1020.8
20260502070101 66 265 0.0 0.0 0.00 0.01 0.01 70 1020.8
20260502065320 66 265 0.0 0.0 0.00 0.01 0.01 69 1020.8
20260502064904 67 265 0.0 5.0 0.00 0.01 0.01 69 1020.7
20260502063803 67 264 0.0 0.0 0.00 0.01 0.01 67 1020.8
20260502063256 67 264 0.0 2.0 0.00 0.01 0.01 67 1020.8
20260502062750 67 264 0.0 2.0 0.00 0.01 0.01 67 1020.8
20260502062248 67 268 0.0 0.0 0.00 0.01 0.01 67 1020.8
20260502061739 67 268 0.0 0.0 0.00 0.01 0.01 67 1020.8
20260502061232 67 268 0.0 0.0 0.00 0.01 0.01 66 1020.8
20260502060727 68 268 0.0 0.0 0.00 0.01 0.01 66 1020.7
20260502060222 68 268 0.0 0.0 0.00 0.01 0.01 67 1020.8
20260502055718 68 268 0.0 0.0 0.00 0.01 0.01 66 1020.8
20260502055208 68 268 0.0 0.0 0.00 0.01 0.01 66 1020.7
20260502054702 68 268 0.0 0.0 0.00 0.01 0.01 66 1020.8
20260502054156 68 268 0.0 0.0 0.00 0.01 0.01 66 1020.8
20260502053652 68 271 0.0 1.0 0.00 0.01 0.01 65 1020.9
20260502053409 68 271 0.0 1.0 0.00 0.01 0.01 65 1020.9
20260502052638 68 294 0.0 0.0 0.00 0.01 0.01 66 1020.9
20260502052132 68 294 0.0 0.0 0.00 0.01 0.01 65 1020.9
20260502051627 69 294 0.0 0.0 0.00 0.01 0.01 64 1021.0
20260502051347 69 294 0.0 0.0 0.00 0.01 0.01 65 1020.9
20260502050616 69 233 0.0 0.0 0.00 0.01 0.01 65 1021.0
20260502050549 69 233 0.0 0.0 0.00 0.01 0.01 64 1021.0
20260502045602 69 233 0.0 0.0 0.00 0.01 0.01 64 1021.1
20260502045057 69 233 0.0 0.0 0.00 0.01 0.01 63 1021.1
20260502044822 69 233 0.0 0.0 0.00 0.01 0.01 63 1021.2
20260502044046 69 233 0.0 0.0 0.00 0.01 0.01 63 1021.2
20260502043538 69 233 0.0 1.0 0.00 0.01 0.01 63 1021.2
20260502043032 69 233 0.0 4.0 0.00 0.01 0.01 62 1021.4
20260502043012 69 284 0.0 4.0 0.00 0.01 0.01 64 1021.4
20260502042026 69 215 0.0 3.0 0.00 0.01 0.01 62 1021.5
20260502041510 69 298 0.0 3.0 0.00 0.01 0.01 62 1021.5
20260502041235 69 218 0.0 3.0 0.00 0.01 0.01 62 1021.7
20260502040458 69 202 0.0 0.0 0.00 0.01 0.01 63 1021.7
20260502035951 69 206 0.0 1.0 0.00 0.01 0.01 63 1021.7
20260502035447 69 206 0.0 3.0 0.00 0.01 0.01 64 1021.7
20260502034940 69 220 0.0 3.0 0.00 0.01 0.01 63 1021.8
20260502034434 69 295 0.0 3.0 0.00 0.01 0.01 64 1021.9
20260502033929 68 297 0.0 3.0 0.00 0.01 0.01 63 1022.0
20260502033422 69 31 0.0 2.0 0.00 0.01 0.01 63 1022.1
20260502032918 69 324 0.0 1.0 0.00 0.01 0.01 63 1022.2
20260502032411 69 24 0.0 1.0 0.00 0.01 0.01 62 1022.2
20260502032125 69 71 0.0 1.0 0.00 0.01 0.01 63 1022.3
20260502031358 69 296 0.0 2.0 0.00 0.01 0.01 63 1022.3
20260502030854 69 287 0.0 2.0 0.00 0.01 0.01 64 1022.4
20260502030346 69 339 0.0 2.0 0.00 0.01 0.01 63 1022.5
20260502025840 68 48 0.0 3.0 0.00 0.01 0.01 63 1022.6
20260502025334 69 297 0.0 3.0 0.00 0.01 0.01 63 1022.6
20260502024828 68 299 0.0 2.0 0.00 0.01 0.01 65 1022.7
20260502024322 68 25 0.0 4.0 0.00 0.01 0.01 65 1022.9
20260502023817 68 288 0.0 4.0 0.00 0.01 0.01 65 1022.9
20260502023310 68 242 0.0 4.0 0.00 0.01 0.01 65 1023.0
20260502022810 67 7 0.0 4.0 0.00 0.01 0.01 65 1023.2
20260502022301 67 301 1.0 6.0 0.00 0.01 0.01 66 1023.4
20260502021752 67 296 1.0 6.0 0.00 0.01 0.01 66 1023.4
20260502021503 67 50 0.0 7.0 0.00 0.01 0.01 67 1023.5
20260502020740 67 41 0.0 7.0 0.00 0.01 0.01 66 1023.6
20260502020235 67 265 1.0 5.0 0.00 0.01 0.01 66 1023.7
20260502015727 67 358 1.0 5.0 0.00 0.01 0.01 66 1023.7
20260502015231 67 320 0.0 3.0 0.00 0.01 0.01 65 1023.8
20260502014728 67 284 0.0 4.0 0.00 0.01 0.01 67 1023.9
20260502014228 66 267 0.0 4.0 0.00 0.01 0.01 67 1024.1
20260502013733 66 359 0.0 5.0 0.00 0.01 0.01 68 1024.2
20260502013228 66 265 1.0 5.0 0.00 0.01 0.01 67 1024.3
20260502012949 67 33 1.0 4.0 0.00 0.01 0.01 66 1024.4
20260502012228 67 299 0.0 4.0 0.00 0.01 0.01 66 1024.5
20260502011952 67 358 0.0 4.0 0.00 0.01 0.01 66 1024.5
20260502011228 67 38 0.0 4.0 0.00 0.01 0.01 66 1024.6
20260502011205 66 265 0.0 3.0 0.00 0.01 0.01 69 1024.7
20260502010228 65 300 0.0 3.0 0.00 0.01 0.01 70 1024.7
20260502005728 65 274 0.0 3.0 0.00 0.01 0.01 73 1024.9
20260502005452 64 294 0.0 0.0 0.00 0.01 0.01 73 1024.9
20260502004726 63 294 0.0 1.0 0.00 0.01 0.01 74 1024.9
20260502004450 62 74 0.0 1.0 0.00 0.01 0.01 76 1025.1
20260502003724 61 74 0.0 1.0 0.00 0.01 0.01 76 1025.1
20260502003226 61 209 0.0 0.0 0.00 0.01 0.01 77 1025.2
20260502002717 61 209 0.0 1.0 0.00 0.01 0.01 77 1025.2
20260502002225 61 209 0.0 1.0 0.00 0.01 0.01 80 1025.3
20260502001716 60 209 0.0 0.0 0.00 0.01 0.01 79 1025.3
20260502001447 60 209 0.0 0.0 0.00 0.01 0.01 80 1025.3
20260502000717 60 209 0.0 0.0 0.00 0.01 0.01 81 1025.3
20260502000226 59 209 0.0 1.0 0.00 0.01 0.01 81 1025.3